MAUNA LOA HI US current weather conditions

sailwx.info

Wind from 135 at 1 knots gusting 6

Air temperature 18.3° C
Dewpoint 13.2° C

Last reported at 2015-Jan-28 03:34 UTC.
Time now 2015-Jan-28 04:20 UTC

Location: N 19°28' W 155°22'.
View on Google Maps.

See reports from other nearby stations

  
Tides and Currents Weather Stations Pressure Air Temp Water Temp Dewpoint Dewpoint Depression Visibility Wind Speed Wind Dir Waves Ship Positions
date/time (UTC)wind fromknots sea level pressurealtimeterstation pressurevisibilityair tempwater tempwave heightnotes
2015-Jan-28 03:34 135 1 gusting 6 18.3
2015-Jan-28 02:34 089 2 gusting 8 19.4
2015-Jan-28 01:34 133 3 gusting 9 21.1
2015-Jan-28 00:34 140 3 gusting 11 21.7
2015-Jan-27 23:34 130 4 gusting 9 22.2
2015-Jan-27 22:34 129 5 gusting 9 22.2
2015-Jan-27 21:34 145 5 gusting 8 23.9
2015-Jan-27 20:34 071 3 gusting 8 23.9
2015-Jan-27 19:34 081 3 gusting 7 23.3
2015-Jan-27 18:34 344 2 gusting 6 20.6
2015-Jan-27 17:34 311 6 gusting 9 12.2
2015-Jan-27 16:34 309 6 gusting 8 8.9
2015-Jan-27 15:34 306 6 gusting 9 9.4
2015-Jan-27 14:34 313 6 gusting 11 10.6
2015-Jan-27 13:34 317 6 gusting 10 11.1
2015-Jan-27 12:34 314 5 gusting 8 10.0
2015-Jan-27 11:34 323 5 gusting 7 10.0
2015-Jan-27 10:34 309 5 gusting 9 9.4
2015-Jan-27 09:34 292 0 gusting 6 6.7
2015-Jan-27 08:34 339 3 gusting 6 6.7
2015-Jan-27 07:34 251 3 gusting 5 6.7
2015-Jan-27 05:34 182 0 gusting 3 11.7
2015-Jan-27 04:34 180 1 gusting 5 13.3
2015-Jan-27 03:34 125 2 gusting 6 16.7
2015-Jan-27 02:34 124 3 gusting 6 20.0
2015-Jan-27 01:34 149 3 gusting 10 21.1
2015-Jan-27 00:34 157 5 gusting 10 21.7
2015-Jan-26 23:34 144 4 gusting 8 22.2
2015-Jan-26 22:34 145 3 gusting 9 22.2
2015-Jan-26 21:34 153 5 gusting 11 22.2
2015-Jan-26 20:34 174 3 gusting 6 22.2
2015-Jan-26 19:34 184 5 gusting 7 18.9
2015-Jan-26 18:34 019 4 gusting 18 16.1
2015-Jan-26 17:34 331 1 gusting 18 10.6
2015-Jan-26 16:34 006 8 gusting 13 10.6
2015-Jan-26 15:34 010 7 gusting 15 11.1
2015-Jan-26 14:34 010 7 gusting 15 11.7
2015-Jan-26 13:34 017 7 gusting 15 11.7
2015-Jan-26 12:34 020 9 gusting 15 11.7
2015-Jan-26 11:34 005 6 gusting 11 12.2
2015-Jan-26 10:34 001 5 gusting 10 12.2
2015-Jan-26 09:34 351 5 gusting 12 12.2
2015-Jan-26 08:34 344 4 gusting 11 12.2
2015-Jan-26 07:34 005 5 gusting 12 12.2
2015-Jan-26 05:34 360 4 gusting 14 12.8
2015-Jan-26 04:34 013 8 gusting 15 12.8